Regional Weather Roundup
Issued by NWS

Home | Current Version | Previous Version | Text Only | Print | Product List | Glossary Off
Versions: 1 2 3 4 5 6 7 8 9 10 11 12 13 14 15 16 17 18 19 20 21 22 23 24 25 26 27 28 29 30 31 32 33 34 35 36 37 38 39 40 41 42 43 44 45 46 47 48 49 50

000
ASUS43 KBIS 191110
RWRND

NORTH DAKOTA REGIONAL WEATHER ROUNDUP
NATIONAL WEATHER SERVICE BISMARCK ND
600 AM CDT TUE SEP 19 2017

NOTE: "FAIR" INDICATES FEW OR NO CLOUDS BELOW 12,000 FEET WITH NO
SIGNIFICANT WEATHER AND/OR OBSTRUCTIONS TO VISIBILITY.


NDZ001>003-009>011-017-191200-
NORTHWEST NORTH DAKOTA

CITY           SKY/WX    TMP DP  RH WIND       PRES   REMARKS
WILLISTON      CLOUDY    62  46  55 E8        29.48S
MINOT          PTCLDY    53  49  86 E10       29.57F
MINOT AFB      CLOUDY    51  48  91 E13       29.56F
$$

NDZ018>021-031>035-040>046-191200-
SOUTHWEST NORTH DAKOTA

CITY           SKY/WX    TMP DP  RH WIND       PRES   REMARKS
BISMARCK       CLOUDY    59  57  93 E13       29.57F
DICKINSON      CLOUDY    57  51  80 E10       29.45F
GARRISON         N/A     59  51  75 E21       29.51F
HETTINGER ARPT CLOUDY    62  46  55 SE12      29.48F
$$

NDZ004>008-012>016-024-026-027-054-191200-
NORTHEAST NORTH DAKOTA

CITY           SKY/WX    TMP DP  RH WIND       PRES   REMARKS
GRAND FORKS    CLOUDY    59  59 100 SE10      29.78F FOG
GRND FRKS AFB  CLOUDY    59  59 100 SE9       29.78F FOG
DEVILS LAKE    CLOUDY    58  56  93 SE13      29.72F
$$

NDZ022-023-025-028>030-036>039-047>053-191200-
SOUTHEAST NORTH DAKOTA

CITY           SKY/WX    TMP DP  RH WIND       PRES   REMARKS
FARGO          CLOUDY    61  60  97 SE12      29.78F FOG
JAMESTOWN      FOG       60  60 100 SE16      29.70F VSB 1
$$




USA.gov is the U.S. government's official web portal to all federal, state and local government web resources and services.